Time,TemperatureF,DewpointF,PressureIn,WindDirection,WindDirectionDegrees,WindSpeedMPH,WindSpeedGustMPH,Humidity,HourlyPrecipIn,Conditions,Clouds,dailyrainin,SoftwareType,DateUTC
2013-08-30 00:12:00,65.0,-99.9,-100.00,North,-999,-999.0,-999.0,-999,0.00,,,0.10,,2013-08-30 06:12:00,
2013-08-30 00:22:00,65.0,-99.9,-100.00,North,-999,-999.0,-999.0,-999,0.00,,,0.10,,2013-08-30 06:22:00,
2013-08-30 00:30:00,66.0,-99.9,-100.00,North,-999,-999.0,-999.0,-999,0.00,,,0.10,,2013-08-30 06:30:00,
2013-08-30 00:53:00,66.0,-99.9,-100.00,North,-999,-999.0,-999.0,-999,0.00,,,0.10,,2013-08-30 06:53:00,
2013-08-30 01:02:00,66.0,-99.9,-100.00,North,-999,-999.0,-999.0,-999,0.00,,,0.10,,2013-08-30 07:02:00,
2013-08-30 01:12:00,66.0,-99.9,-100.00,North,-999,-999.0,-999.0,-999,0.00,,,0.10,,2013-08-30 07:12:00,
2013-08-30 01:22:00,66.0,-99.9,-100.00,North,-999,-999.0,-999.0,-999,0.00,,,0.10,,2013-08-30 07:22:00,
2013-08-30 01:30:00,66.0,-99.9,-100.00,North,-999,-999.0,-999.0,-999,0.03,,,0.13,,2013-08-30 07:30:00,
2013-08-30 02:12:00,66.0,-99.9,-100.00,North,-999,-999.0,-999.0,-999,0.03,,,0.13,,2013-08-30 08:12:00,
2013-08-30 02:23:00,66.0,-99.9,-100.00,North,-999,-999.0,-999.0,-999,0.03,,,0.13,,2013-08-30 08:23:00,
2013-08-30 02:30:00,67.0,-99.9,-100.00,North,-999,-999.0,-999.0,-999,-99.99,,,0.11,,2013-08-30 08:30:00,
2013-08-30 03:12:00,67.0,-99.9,-100.00,North,-999,-999.0,-999.0,-999,-99.99,,,0.11,,2013-08-30 09:12:00,
2013-08-30 03:22:00,67.0,-99.9,-100.00,North,-999,-999.0,-999.0,-999,-99.99,,,0.11,,2013-08-30 09:22:00,
2013-08-30 03:30:00,66.0,-99.9,-100.00,North,-999,-999.0,-999.0,-999,0.00,,,0.07,,2013-08-30 09:30:00,
2013-08-30 03:53:00,66.0,-99.9,-100.00,North,-999,-999.0,-999.0,-999,0.00,,,0.07,,2013-08-30 09:53:00,
2013-08-30 04:03:00,66.0,-99.9,-100.00,North,-999,-999.0,-999.0,-999,0.00,,,0.07,,2013-08-30 10:03:00,
2013-08-30 04:13:00,66.0,-99.9,-100.00,North,-999,-999.0,-999.0,-999,0.00,,,0.07,,2013-08-30 10:13:00,
2013-08-30 04:23:00,66.0,-99.9,-100.00,North,-999,-999.0,-999.0,-999,0.00,,,0.07,,2013-08-30 10:23:00,
2013-08-30 05:30:00,61.0,-99.9,-100.00,North,-999,-999.0,-999.0,-999,0.00,,,0.01,,2013-08-30 11:30:00,
2013-08-30 05:53:00,61.0,-99.9,-100.00,North,-999,-999.0,-999.0,-999,0.00,,,0.01,,2013-08-30 11:53:00,
2013-08-30 06:02:00,61.0,-99.9,-100.00,North,-999,-999.0,-999.0,-999,0.00,,,0.01,,2013-08-30 12:02:00,
2013-08-30 06:12:00,61.0,-99.9,-100.00,North,-999,-999.0,-999.0,-999,0.00,,,0.01,,2013-08-30 12:12:00,
2013-08-30 06:22:00,61.0,-99.9,-100.00,North,-999,-999.0,-999.0,-999,0.00,,,0.01,,2013-08-30 12:22:00,
2013-08-30 06:30:00,59.0,-99.9,-100.00,North,-999,-999.0,-999.0,-999,-99.99,,,0.00,,2013-08-30 12:30:00,
2013-08-30 06:52:00,59.0,-99.9,-100.00,North,-999,-999.0,-999.0,-999,-99.99,,,0.00,,2013-08-30 12:52:00,
2013-08-30 07:02:00,59.0,-99.9,-100.00,North,-999,-999.0,-999.0,-999,-99.99,,,0.00,,2013-08-30 13:02:00,
2013-08-30 07:11:00,59.0,-99.9,-100.00,North,-999,-999.0,-999.0,-999,-99.99,,,0.00,,2013-08-30 13:11:00,
2013-08-30 07:22:00,59.0,-99.9,-100.00,North,-999,-999.0,-999.0,-999,-99.99,,,0.00,,2013-08-30 13:22:00,
2013-08-30 07:30:00,59.0,-99.9,-100.00,North,-999,-999.0,-999.0,-999,0.02,,,0.02,,2013-08-30 13:30:00,
2013-08-30 07:52:00,59.0,-99.9,-100.00,North,-999,-999.0,-999.0,-999,0.02,,,0.02,,2013-08-30 13:52:00,
2013-08-30 08:02:00,59.0,-99.9,-100.00,North,-999,-999.0,-999.0,-999,0.02,,,0.02,,2013-08-30 14:02:00,
2013-08-30 08:11:00,59.0,-99.9,-100.00,North,-999,-999.0,-999.0,-999,0.02,,,0.02,,2013-08-30 14:11:00,
2013-08-30 08:22:00,59.0,-99.9,-100.00,North,-999,-999.0,-999.0,-999,0.02,,,0.02,,2013-08-30 14:22:00,
2013-08-30 08:30:00,65.0,-99.9,-100.00,North,-999,-999.0,-999.0,-999,-99.99,,,0.00,,2013-08-30 14:30:00,
2013-08-30 08:52:00,65.0,-99.9,-100.00,North,-999,-999.0,-999.0,-999,-99.99,,,0.00,,2013-08-30 14:52:00,
2013-08-30 09:02:00,65.0,-99.9,-100.00,North,-999,-999.0,-999.0,-999,-99.99,,,0.00,,2013-08-30 15:02:00,
2013-08-30 09:22:00,65.0,-99.9,-100.00,North,-999,-999.0,-999.0,-999,-99.99,,,0.00,,2013-08-30 15:22:00,
2013-08-30 10:30:00,76.0,-99.9,-100.00,North,-999,-999.0,-999.0,-999,0.00,,,0.00,,2013-08-30 16:30:00,
2013-08-30 10:53:00,76.0,-99.9,-100.00,North,-999,-999.0,-999.0,-999,0.00,,,0.00,,2013-08-30 16:53:00,
2013-08-30 11:03:00,76.0,-99.9,-100.00,North,-999,-999.0,-999.0,-999,0.00,,,0.00,,2013-08-30 17:03:00,
2013-08-30 11:13:00,76.0,-99.9,-100.00,North,-999,-999.0,-999.0,-999,0.00,,,0.00,,2013-08-30 17:13:00,
2013-08-30 11:24:00,76.0,-99.9,-100.00,North,-999,-999.0,-999.0,-999,0.00,,,0.00,,2013-08-30 17:24:00,
2013-08-30 11:30:00,79.0,-99.9,-100.00,North,-999,-999.0,-999.0,-999,0.00,,,-99.99,,2013-08-30 17:30:00,
2013-08-30 11:53:00,79.0,-99.9,-100.00,North,-999,-999.0,-999.0,-999,0.00,,,-99.99,,2013-08-30 17:53:00,
2013-08-30 12:02:00,79.0,-99.9,-100.00,North,-999,-999.0,-999.0,-999,0.00,,,-99.99,,2013-08-30 18:02:00,
2013-08-30 12:12:00,79.0,-99.9,-100.00,North,-999,-999.0,-999.0,-999,0.00,,,-99.99,,2013-08-30 18:12:00,
2013-08-30 12:22:00,79.0,-99.9,-100.00,North,-999,-999.0,-999.0,-999,0.00,,,-99.99,,2013-08-30 18:22:00,
2013-08-30 12:30:00,82.0,-99.9,-100.00,North,-999,-999.0,-999.0,-999,0.00,,,0.00,,2013-08-30 18:30:00,
2013-08-30 13:12:00,82.0,-99.9,-100.00,North,-999,-999.0,-999.0,-999,0.00,,,0.00,,2013-08-30 19:12:00,
2013-08-30 13:22:00,82.0,-99.9,-100.00,North,-999,-999.0,-999.0,-999,0.00,,,0.00,,2013-08-30 19:22:00,
2013-08-30 13:30:00,84.0,-99.9,-100.00,North,-999,-999.0,-999.0,-999,0.01,,,0.01,,2013-08-30 19:30:00,
2013-08-30 13:53:00,84.0,-99.9,-100.00,North,-999,-999.0,-999.0,-999,0.01,,,0.01,,2013-08-30 19:53:00,
2013-08-30 14:03:00,84.0,-99.9,-100.00,North,-999,-999.0,-999.0,-999,0.01,,,0.01,,2013-08-30 20:03:00,
2013-08-30 14:12:00,84.0,-99.9,-100.00,North,-999,-999.0,-999.0,-999,0.01,,,0.01,,2013-08-30 20:12:00,
2013-08-30 14:22:00,84.0,-99.9,-100.00,North,-999,-999.0,-999.0,-999,0.01,,,0.01,,2013-08-30 20:22:00,
2013-08-30 14:30:00,85.0,-99.9,-100.00,North,-999,-999.0,-999.0,-999,0.00,,,0.01,,2013-08-30 20:30:00,
2013-08-30 14:52:00,85.0,-99.9,-100.00,North,-999,-999.0,-999.0,-999,0.00,,,0.01,,2013-08-30 20:52:00,
2013-08-30 15:02:00,85.0,-99.9,-100.00,North,-999,-999.0,-999.0,-999,0.00,,,0.01,,2013-08-30 21:02:00,
2013-08-30 15:12:00,85.0,-99.9,-100.00,North,-999,-999.0,-999.0,-999,0.00,,,0.01,,2013-08-30 21:12:00,
2013-08-30 15:22:00,85.0,-99.9,-100.00,North,-999,-999.0,-999.0,-999,0.00,,,0.01,,2013-08-30 21:22:00,
2013-08-30 15:30:00,86.0,-99.9,-100.00,North,-999,-999.0,-999.0,-999,0.00,,,0.01,,2013-08-30 21:30:00,
2013-08-30 15:55:00,86.0,-99.9,-100.00,North,-999,-999.0,-999.0,-999,0.00,,,0.01,,2013-08-30 21:55:00,
2013-08-30 16:04:00,86.0,-99.9,-100.00,North,-999,-999.0,-999.0,-999,0.00,,,0.01,,2013-08-30 22:04:00,
2013-08-30 16:13:00,86.0,-99.9,-100.00,North,-999,-999.0,-999.0,-999,0.00,,,0.01,,2013-08-30 22:13:00,
2013-08-30 16:24:00,86.0,-99.9,-100.00,North,-999,-999.0,-999.0,-999,0.00,,,0.01,,2013-08-30 22:24:00,
2013-08-30 16:30:00,88.0,-99.9,-100.00,North,-999,-999.0,-999.0,-999,-99.99,,,-99.99,,2013-08-30 22:30:00,
2013-08-30 16:54:00,88.0,-99.9,-100.00,North,-999,-999.0,-999.0,-999,-99.99,,,-99.99,,2013-08-30 22:54:00,
2013-08-30 17:03:00,88.0,-99.9,-100.00,North,-999,-999.0,-999.0,-999,-99.99,,,-99.99,,2013-08-30 23:03:00,
2013-08-30 17:12:00,88.0,-99.9,-100.00,North,-999,-999.0,-999.0,-999,-99.99,,,-99.99,,2013-08-30 23:12:00,
2013-08-30 17:22:00,88.0,-99.9,-100.00,North,-999,-999.0,-999.0,-999,-99.99,,,-99.99,,2013-08-30 23:22:00,
2013-08-30 18:30:00,87.0,-99.9,-100.00,North,-999,-999.0,-999.0,-999,0.00,,,0.00,,2013-08-31 00:30:00,
2013-08-30 18:52:00,87.0,-99.9,-100.00,North,-999,-999.0,-999.0,-999,0.00,,,0.00,,2013-08-31 00:52:00,
2013-08-30 19:01:00,87.0,-99.9,-100.00,North,-999,-999.0,-999.0,-999,0.00,,,0.00,,2013-08-31 01:01:00,
2013-08-30 19:11:00,87.0,-99.9,-100.00,North,-999,-999.0,-999.0,-999,0.00,,,0.00,,2013-08-31 01:11:00,
2013-08-30 19:22:00,87.0,-99.9,-100.00,North,-999,-999.0,-999.0,-999,0.00,,,0.00,,2013-08-31 01:22:00,
2013-08-30 19:30:00,85.0,-99.9,-100.00,North,-999,-999.0,-999.0,-999,-99.99,,,-99.99,,2013-08-31 01:30:00,
2013-08-30 19:53:00,85.0,-99.9,-100.00,North,-999,-999.0,-999.0,-999,-99.99,,,-99.99,,2013-08-31 01:53:00,
2013-08-30 20:02:00,85.0,-99.9,-100.00,North,-999,-999.0,-999.0,-999,-99.99,,,-99.99,,2013-08-31 02:02:00,
2013-08-30 20:12:00,85.0,-99.9,-100.00,North,-999,-999.0,-999.0,-999,-99.99,,,-99.99,,2013-08-31 02:12:00,
2013-08-30 20:22:00,85.0,-99.9,-100.00,North,-999,-999.0,-999.0,-999,-99.99,,,-99.99,,2013-08-31 02:22:00,
2013-08-30 20:30:00,77.0,-99.9,-100.00,North,-999,-999.0,-999.0,-999,0.00,,,-99.99,,2013-08-31 02:30:00,
2013-08-30 21:22:00,77.0,-99.9,-100.00,North,-999,-999.0,-999.0,-999,0.00,,,-99.99,,2013-08-31 03:22:00,
2013-08-30 21:30:00,71.0,-99.9,-100.00,North,-999,-999.0,-999.0,-999,0.00,,,0.00,,2013-08-31 03:30:00,
2013-08-30 22:14:00,71.0,-99.9,-100.00,North,-999,-999.0,-999.0,-999,0.00,,,0.00,,2013-08-31 04:14:00,
2013-08-30 22:24:00,71.0,-99.9,-100.00,North,-999,-999.0,-999.0,-999,0.00,,,0.00,,2013-08-31 04:24:00,
2013-08-30 22:30:00,67.0,-99.9,-100.00,North,-999,-999.0,-999.0,-999,0.00,,,0.00,,2013-08-31 04:30:00,
2013-08-30 22:54:00,67.0,-99.9,-100.00,North,-999,-999.0,-999.0,-999,0.00,,,0.00,,2013-08-31 04:54:00,
2013-08-30 23:04:00,67.0,-99.9,-100.00,North,-999,-999.0,-999.0,-999,0.00,,,0.00,,2013-08-31 05:04:00,
2013-08-30 23:13:00,67.0,-99.9,-100.00,North,-999,-999.0,-999.0,-999,0.00,,,0.00,,2013-08-31 05:13:00,
2013-08-30 23:23:00,67.0,-99.9,-100.00,North,-999,-999.0,-999.0,-999,0.00,,,0.00,,2013-08-31 05:23:00,
2013-08-30 23:30:00,68.0,-99.9,-100.00,North,-999,-999.0,-999.0,-999,0.00,,,0.00,,2013-08-31 05:30:00,
2013-08-30 23:53:00,68.0,-99.9,-100.00,North,-999,-999.0,-999.0,-999,0.00,,,0.00,,2013-08-31 05:53:00,